Location: T. Spence Memorial Observatory
(32.7356°N, 82.2098°W)
Time: 19:27:50
(UTC-04:00)

Daily predictions for brighter satellites

Satellite Brightness Start Highest point End
(mag) Time Altitude Azimuth Time Altitude Azimuth Time Altitude Azimuth
METEOR-M 4.3 20:08:59 10° SSE 20:14:10 53° ENE 20:19:21 10° N
Cosmos 1025 Rocket 4.2 20:15:52 10° NNW 20:20:03 48° W 20:24:10 10° SSW
Cosmos 2084 4.3 20:16:43 10° N 20:20:25 31° NE 20:24:17 10° ESE
Cosmos 468 Rocket 4.1 20:19:16 10° S 20:24:11 50° ESE 20:29:09 10° NNE
Meteor 2-15 4.4 20:19:46 10° N 20:25:50 81° E 20:31:54 10° S
Cosmos 1697 Rocket 2.7 20:22:28 10° S 20:28:02 66° ESE 20:33:39 10° NNE
Cosmos 1346 Rocket 2.9 20:28:21 10° N 20:32:21 81° W 20:36:21 10° S
Meteor 1-12 Rocket 4.3 20:27:33 10° S 20:33:15 72° E 20:39:05 10° NNE
Meteor 2-15 Rocket 4.4 20:27:40 10° N 20:33:45 79° E 20:39:48 10° S
Cosmos 1743 4.2 20:31:56 10° SE 20:34:37 18° E 20:37:18 10° NE
Cosmos 220 Rocket 4.0 20:31:09 10° N 20:35:18 56° ENE 20:39:26 10° SSE
Okean 2 4.1 20:32:30 10° NNW 20:36:35 59° W 20:40:38 10° S
NOSS 3-4 (A) 4.3 20:29:32 10° NW 20:36:37 64° WSW 20:44:03 10° SSE
NOSS 3-4 (C) 4.3 20:29:40 10° NW 20:36:45 65° WSW 20:44:12 10° SSE
OTV 4 2.0 20:35:31 10° W 20:38:07 28° SSW 20:40:42 10° SSE
Cosmos 1814 Rocket 4.1 20:33:58 10° S 20:39:12 60° ESE 20:44:25 10° NNE
Cosmos 1626 Rocket 3.7 20:35:57 10° N 20:40:12 49° E 20:44:23 10° SSE
Cosmos 1455 Rocket 4.2 20:36:04 10° SSW 20:40:15 48° W 20:44:28 10° N
Meteor 1-29 3.9 20:36:59 10° N 20:40:23 52° WNW 20:43:46 10° SSW
CZ-4B DEB 3.1 20:37:23 10° SSE 20:40:31 46° ENE 20:43:41 10° N
DELTA 2 R/B (1) 3.6 20:35:08 10° WNW 20:40:44 80° NNE 20:45:24 15° ESE
Cosmos 1605 Rocket 4.1 20:34:29 10° S 20:40:50 89° W 20:47:07 10° N
SL-16 R/B 3.6 20:40:54 10° SE 20:44:14 16° E 20:47:35 10° ENE
Helios 1B rocket 3.9 20:41:31 10° N 20:45:24 42° WNW 20:49:16 10° SW
Lacrosse 5 2.5 20:42:47 10° NNW 20:47:34 41° NE 20:50:59 18° ESE
Cosmos 1602 Rocket 3.5 20:46:56 10° N 20:51:21 69° E 20:55:43 10° SSE
ATLAS 3B CENTAUR R/B 2.3 20:51:14 10° SW 20:52:27 13° SSW 20:53:11 11° S
Cosmos 1980 Rocket 2.2 20:47:23 10° S 20:52:58 64° ESE 20:58:36 10° NNE
Cosmos 2100 Rocket 4.2 20:47:33 10° SSE 20:53:29 46° E 20:59:22 10° NNE
USA 186 2.3 20:52:31 24° ESE 20:53:35 31° ENE 20:56:08 10° NNE
Iridium 4 Rocket 3.2 20:52:29 10° N 20:57:06 53° E 21:01:21 10° SSE
FENGYUN 3A 3.6 20:54:07 10° SSE 20:59:25 70° ENE 21:04:44 10° N
ALOS 2.2 20:57:14 10° SSE 21:01:53 78° ENE 21:06:34 10° N
H-2A R/B 2.7 21:02:00 14° SSE 21:05:17 68° ENE 21:09:13 10° N
Resurs 1-3 4.5 21:02:06 10° S 21:06:21 51° W 21:10:38 10° NNW
Cosmos 2061 Rocket 4.0 21:06:45 10° S 21:12:57 62° E 21:19:06 10° NNE
Envisat 4.1 21:12:39 24° E 21:13:23 25° ENE 21:17:27 10° NNE
CZ-4 DEB 4.5 21:14:52 20° NE 21:14:52 20° NE 21:16:23 10° NNE
Cosmos 1459 Rocket 3.9 21:08:03 10° S 21:13:59 65° E 21:20:02 10° NNE
OAO 2 Rocket 3.3 21:10:35 10° WNW 21:15:33 79° N 21:17:57 31° E
RESURS DK-1 2.3 21:11:54 10° NNW 21:16:02 66° ENE 21:17:35 36° SE
Cosmos 1937 Rocket 3.5 21:12:54 10° N 21:18:10 67° ENE 21:21:07 26° SSE
Cosmos 1606 Rocket 3.7 21:16:54 25° SSE 21:19:10 49° E 21:23:27 10° NNE
Tiangong 1 1.8 21:18:00 10° NW 21:20:56 38° NNE 21:21:04 38° NNE
Cosmos 2058 Rocket 4.0 21:22:10 30° ENE 21:22:10 30° ENE 21:25:27 10° NNE
Cosmos 1500 4.4 21:19:42 10° SSW 21:23:17 43° W 21:26:54 10° N
Cosmos 990 Rocket 4.1 21:18:53 10° N 21:24:01 54° ENE 21:25:46 37° SE
Cosmos 2322 Rocket 2.3 21:23:10 10° S 21:28:28 46° ESE 21:33:48 10° NNE
Cosmos 2227 Rocket 4.2 21:25:01 10° NW 21:29:32 25° WSW 21:34:03 10° SSW
ERS-1 Rocket 3.2 21:29:00 41° ESE 21:30:02 47° ENE 21:34:50 10° N
Cosmos 1340 3.0 21:28:00 10° N 21:31:12 46° NE 21:31:12 46° NE
CZ-2D R/B 4.4 21:29:58 13° S 21:33:14 43° W 21:36:57 10° NNW
Chunghua 1 4.4 21:30:30 10° WNW 21:34:20 82° NNE 21:34:34 75° ENE
Resurs 01 Rocket 4.4 21:35:27 10° SW 21:38:13 16° W 21:40:59 10° NW
Cosmos 1726 Rocket 3.4 21:40:09 57° SSE 21:40:58 77° E 21:45:22 10° N
Cosmos 1763 Rocket 4.1 21:38:12 10° SSW 21:43:12 56° WNW 21:48:11 10° N
Meteor 2-9 Rocket 4.1 21:42:27 49° SE 21:43:29 57° E 21:48:46 10° NNE
Cosmos 2297 Rocket 4.1 21:39:24 10° NW 21:44:04 27° WSW 21:48:44 10° SSW
Cosmos 836 Rocket 4.4 21:40:41 10° SSW 21:45:57 88° ESE 21:51:17 10° NNE
Meteor 1-15 Rocket 4.2 21:56:11 59° SE 21:57:05 69° E 22:02:56 10° NNE
SL-08 R/B 4.4 21:53:50 24° S 21:57:48 87° E 22:03:59 10° N
Cosmos 2227 4.1 21:53:28 10° NNW 21:59:13 87° ENE 22:00:00 68° SSE
BREEZE-M DEB (TANK) 4.2 21:58:04 10° NNW 21:59:21 21° N 21:59:21 21° N
Cosmos 1825 Rocket 4.0 21:56:48 10° NNW 22:01:06 56° W 22:01:32 54° WSW
ASTEX 1 3.9 22:01:34 10° N 22:05:15 48° NNE 22:05:15 48° NNE
Cosmos 2016 Rocket 4.3 22:00:44 10° SSW 22:06:46 64° W 22:12:56 10° N
Meteor 1-21 4.4 22:01:16 10° NNW 22:07:03 72° W 22:08:38 49° SSW
Cosmos 1125 Rocket 4.1 22:04:30 10° N 22:08:30 46° NNE 22:08:30 46° NNE
Cosmos 540 Rocket 4.5 22:12:08 35° NNE 22:12:08 35° NNE 22:15:06 10° NNE
H-2A R/B 3.6 22:12:09 27° N 22:12:09 27° N 22:14:09 10° N
Cosmos 1953 Rocket 4.2 22:09:44 10° NNW 22:13:39 54° WNW 22:13:39 54° WNW
Nimbus 7 Rocket 4.4 22:09:07 10° NNE 22:15:13 87° WNW 22:16:34 57° SSW
Cosmos 2098 Rocket 4.2 22:13:48 21° SSW 22:18:28 68° W 22:24:08 10° N
Cosmos 1939 Rocket 4.4 22:22:25 37° NW 22:22:25 37° NW 22:25:16 10° NNW
SL-16 R/B 2.8 22:22:17 10° SW 22:27:48 54° WNW 22:33:21 10° N
Lacrosse 5 3.6 22:26:15 10° WNW 22:30:12 24° WSW 22:30:12 24° WSW
BREEZE-M TANK 4.0 22:26:54 10° NW 22:31:14 38° NW 22:31:14 38° NW
SPOT 5 4.1 22:36:38 37° NNW 22:36:38 37° NNW 22:39:27 10° NNW
Cosmos 2263 Rocket 3.7 22:59:20 10° NNW 23:02:03 30° NNW 23:02:03 30° NNW
Cosmos 2322 Rocket 4.5 23:08:38 10° WSW 23:12:42 20° WNW 23:16:48 10° NNW
